FW0554 Weather Reports


time (UTC)temp
C
wind
direction
speed
KPH
gust
KPH
rain 1hr
cm
rain 24hr
cm
rain mn
cm
humidity
%
barometer
mb
20260906123150 23 59 0.0 0.0 0.00 0.10 0.00 89 1000.6
20260906122147 23 64 0.0 0.0 0.00 0.10 0.00 90 1000.5
20260906121147 23 37 0.0 0.0 0.00 0.10 0.00 91 1000.7
20260906120146 23 21 0.0 0.0 0.00 0.10 0.00 92 1000.7
20260906115147 23 55 0.0 0.0 0.00 0.10 0.00 92 1000.4
20260906114624 23 65 0.0 0.0 0.00 0.10 0.00 93 1000.4
20260906113144 23 91 0.0 0.0 0.00 0.10 0.00 93 1000.2
20260906112144 22 64 0.0 0.0 0.00 0.10 0.00 93 1000.1
20260906111145 23 61 0.0 0.0 0.00 0.10 0.00 93 999.9
20260906110626 22 30 0.0 0.0 0.00 0.10 0.00 93 999.7
20260906105621 22 101 0.0 0.0 0.00 0.10 0.00 93 999.8
20260906104138 22 87 0.0 0.0 0.00 0.10 0.00 93 999.7
20260906103615 22 87 0.0 0.0 0.00 0.10 0.00 93 999.6
20260906102136 22 81 0.0 0.0 0.00 0.10 0.00 94 999.6
20260906101133 22 72 0.0 0.0 0.00 0.10 0.00 94 999.5
20260906100133 22 41 0.0 0.0 0.00 0.10 0.00 94 999.4
20260906095614 22 29 0.0 0.0 0.00 0.10 0.00 94 999.2
20260906094132 22 12 0.0 0.0 0.00 0.10 0.00 94 998.9
20260906093130 22 38 0.0 0.0 0.00 0.10 0.00 94 998.9
20260906092131 22 83 0.0 0.0 0.00 0.10 0.00 94 998.8
20260906091131 22 72 0.0 0.0 0.00 0.10 0.00 94 998.7
20260906091103 22 47 0.0 0.0 0.00 0.10 0.00 94 998.7
20260906085126 22 53 0.0 0.0 0.00 0.10 0.00 94 998.6
20260906084126 22 49 0.0 0.0 0.00 0.10 0.00 94 998.4
20260906083126 22 48 0.0 0.0 0.00 0.10 0.00 94 998.6
20260906082606 22 49 0.0 0.0 0.00 0.10 0.00 94 998.3
20260906081608 22 48 0.0 0.0 0.00 0.10 0.00 94 998.3
20260906080128 22 48 0.0 0.0 0.00 0.10 0.00 94 998.4
20260906075615 22 48 0.0 0.0 0.00 0.10 0.00 93 998.1
20260906074118 22 48 0.0 0.0 0.00 0.10 0.00 93 998.0
20260906073117 22 48 0.0 0.0 0.00 0.10 0.00 93 997.9
20260906072113 22 48 0.0 0.0 0.00 0.10 0.00 93 997.9
20260906071114 22 48 0.0 0.0 0.00 0.10 0.00 93 998.0
20260906070112 22 48 0.0 0.0 0.00 0.10 0.00 92 998.0
20260906065110 23 48 0.0 0.0 0.00 0.10 0.00 92 998.1
20260906064106 23 48 0.0 0.0 0.00 0.10 0.00 92 998.1
20260906063106 23 48 0.0 0.0 0.00 0.10 0.00 92 998.2
20260906062104 23 48 0.0 0.0 0.00 0.10 0.00 92 998.2
20260906061103 23 48 0.0 0.0 0.00 0.10 0.00 92 998.3
20260906055543 23 48 0.0 0.0 0.00 0.10 0.00 91 998.5
20260906054102 23 48 0.0 0.0 0.00 0.10 0.00 91 998.8
20260906053540 23 48 0.0 0.0 0.00 0.10 0.00 91 998.9
20260906052539 23 48 0.0 0.0 0.00 0.10 0.00 91 998.8
20260906051101 23 48 0.0 0.0 0.00 0.10 0.00 90 998.8
20260906050101 23 48 0.0 0.0 0.00 0.10 0.00 90 998.9
20260906045101 23 48 0.0 0.0 0.00 0.10 0.00 90 999.0
20260906044103 24 48 0.0 0.0 0.00 0.10 0.00 90 999.1
20260906043101 24 48 0.0 0.0 0.00 0.10 0.00 90 999.2
20260906042101 24 48 0.0 0.0 0.00 0.10 0.00 90 999.1
20260906041101 24 48 0.0 0.0 0.00 0.10 0.00 90 999.2
20260906040101 23 48 0.0 0.0 0.00 0.10 0.00 90 999.4
20260906035100 23 48 0.0 0.0 0.00 0.10 0.10 90 999.0
20260906034102 23 48 0.0 0.0 0.00 0.10 0.10 90 999.3
20260906033101 24 48 0.0 0.0 0.00 0.10 0.10 90 999.2
20260906032102 24 48 0.0 0.0 0.00 0.10 0.10 91 999.1
20260906031104 23 48 0.0 0.0 0.00 0.10 0.10 91 999.3
20260906030101 23 66 0.0 0.0 0.00 0.10 0.10 91 999.1
20260906025103 23 66 0.0 0.0 0.00 0.10 0.10 91 999.1
20260906024101 24 336 0.0 0.0 0.00 0.10 0.10 91 999.0
20260906023541 24 336 0.0 0.0 0.00 0.13 0.10 91 999.1
20260906022533 24 336 0.0 0.0 0.00 0.13 0.10 91 999.0
20260906021535 24 336 0.0 0.0 0.00 0.13 0.10 91 999.1
20260906020100 24 285 0.0 0.0 0.00 0.13 0.10 91 999.0
20260906015056 24 285 0.0 0.0 0.00 0.13 0.10 91 999.1
20260906014054 25 285 0.0 0.0 0.00 0.13 0.10 91 999.0
20260906013052 25 285 0.0 0.0 0.00 0.13 0.10 90 998.9
20260906012530 25 285 0.0 0.0 0.00 0.13 0.10 90 998.8
20260906011051 25 285 0.0 0.0 0.00 0.13 0.10 90 998.9
20260906010049 25 285 0.0 0.0 0.00 0.13 0.10 89 998.7
20260906005526 25 285 0.0 0.0 0.00 0.13 0.10 89 998.4
20260906004044 25 285 0.0 0.0 0.00 0.13 0.10 88 998.4
20260906003044 25 285 0.0 0.0 0.00 0.13 0.10 88 998.6
20260906002042 25 285 0.0 0.0 0.00 0.13 0.10 88 998.4
20260906001039 25 285 0.0 0.0 0.00 0.13 0.10 87 998.3
20260906000036 25 285 0.0 0.0 0.00 0.13 0.10 87 998.1
20260905235036 25 285 0.0 0.0 0.00 0.13 0.10 87 997.8
20260905234035 25 285 0.0 0.0 0.00 0.13 0.10 86 997.7
20260905233034 25 285 0.0 0.0 0.00 0.13 0.10 86 997.6
20260905232031 25 285 0.0 0.0 0.00 0.13 0.10 86 997.6
20260905231030 26 285 0.0 0.0 0.00 0.13 0.10 87 997.2
20260905230032 26 285 0.0 0.0 0.00 0.13 0.10 87 997.2
20260905225031 25 285 0.0 0.0 0.00 0.13 0.10 87 997.0
20260905224522 25 285 0.0 0.0 0.00 0.13 0.10 87 997.0
20260905223029 25 285 0.0 0.0 0.00 0.13 0.10 88 997.1
20260905222030 25 285 0.0 0.0 0.00 0.13 0.10 88 997.3
20260905221029 25 285 0.0 0.0 0.00 0.13 0.10 89 997.5
20260905220029 25 285 0.0 0.0 0.00 0.13 0.10 88 997.7
20260905215029 25 279 0.0 0.0 0.00 0.13 0.10 88 997.6
20260905214030 25 18 0.0 0.0 0.00 0.13 0.10 88 997.1
20260905213030 25 21 0.0 0.0 0.00 0.13 0.10 88 997.1
20260905212029 25 22 0.0 0.0 0.00 0.13 0.10 88 997.0
20260905211029 25 25 0.0 0.0 0.00 0.13 0.10 88 996.9
20260905210504 25 26 0.0 0.0 0.10 0.13 0.10 87 996.9
20260905205026 25 30 0.0 0.0 0.10 0.13 0.10 86 996.9
20260905204512 25 30 0.0 0.0 0.10 0.13 0.10 84 996.9
20260905203026 26 30 0.0 0.0 0.10 0.13 0.10 82 997.1
20260905202025 26 27 0.0 0.0 0.10 0.13 0.10 79 997.1
20260905201025 27 27 0.0 3.2 0.10 0.13 0.08 74 997.1
20260905200024 28 326 3.2 16.1 0.00 0.03 0.00 68 997.7
20260905195025 28 35 4.8 16.1 0.00 0.03 0.00 67 998.3
20260905194023 29 339 4.8 14.5 0.00 0.03 0.00 63 998.0
20260905193024 31 50 8.0 22.5 0.00 0.03 0.00 56 998.0
20260905192024 35 123 8.0 40.2 0.00 0.03 0.00 47 997.7
20260905191022 36 332 4.8 14.5 0.00 0.03 0.00 41 996.8
20260905190023 37 322 3.2 14.5 0.00 0.03 0.00 41 996.7
20260905185018 37 357 4.8 16.1 0.00 0.03 0.00 37 996.5
20260905184019 39 257 3.2 12.9 0.00 0.03 0.00 37 996.8
20260905183016 39 341 4.8 16.1 0.00 0.03 0.00 38 996.5
20260905182016 38 258 3.2 11.3 0.00 0.03 0.00 40 996.8
20260905181015 38 293 3.2 11.3 0.00 0.03 0.00 41 997.2
20260905180022 37 2 3.2 16.1 0.00 0.03 0.00 41 997.3
20260905175017 37 316 3.2 9.7 0.00 0.03 0.00 41 997.6
20260905174014 38 259 4.8 16.1 0.00 0.03 0.00 41 998.0
20260905173014 38 125 4.8 14.5 0.00 0.03 0.00 41 998.2
20260905172014 37 301 3.2 11.3 0.00 0.03 0.00 41 998.4
20260905171013 37 341 4.8 17.7 0.00 0.03 0.00 42 998.6
20260905170012 37 224 4.8 12.9 0.00 0.03 0.00 43 998.7
20260905165011 37 314 3.2 12.9 0.00 0.03 0.00 44 998.8
20260905164010 36 44 1.6 9.7 0.00 0.03 0.00 44 998.8
20260905163009 36 346 3.2 11.3 0.00 0.03 0.00 46 998.9
20260905162445 36 237 3.2 11.3 0.00 0.03 0.00 46 999.0
20260905161008 36 310 3.2 9.7 0.00 0.03 0.00 47 999.2
20260905160918 36 328 4.8 14.5 0.00 0.03 0.00 45 999.4
20260905155008 36 328 3.2 14.5 0.00 0.03 0.00 49 999.4
20260905154007 35 266 3.2 12.9 0.00 0.03 0.00 50 999.6
20260905153941 35 304 3.2 9.7 0.00 0.03 0.00 52 999.8
20260905152007 35 308 4.8 11.3 0.00 0.03 0.00 52 999.6
20260905151005 34 320 3.2 11.3 0.00 0.03 0.00 53 999.8
20260905150434 33 328 3.2 12.9 0.00 0.03 0.00 54 999.8
20260905145005 33 307 1.6 11.3 0.00 0.03 0.00 57 999.7
20260905144003 33 306 3.2 9.7 0.00 0.03 0.00 56 999.8
20260905143003 32 268 1.6 11.3 0.00 0.03 0.00 60 999.9
20260905142004 32 329 3.2 6.4 0.00 0.03 0.00 62 999.7
20260905141002 31 257 3.2 9.7 0.00 0.03 0.00 64 999.7
20260905140447 31 325 1.6 6.4 0.00 0.03 0.00 65 999.7
20260905135442 31 272 3.2 9.7 0.00 0.03 0.00 67 999.9
20260905134001 30 270 3.2 11.3 0.00 0.03 0.00 68 999.9
20260905133002 30 313 1.6 9.7 0.00 0.03 0.00 70 999.8
20260905132002 30 297 3.2 11.3 0.00 0.03 0.00 72 999.9
20260905131001 29 307 3.2 8.0 0.00 0.03 0.00 74 999.9
20260905130451 28 349 3.2 9.7 0.00 0.03 0.00 75 999.9
20260905125002 28 337 3.2 14.5 0.00 0.03 0.00 77 1000.1
20260905124000 27 255 3.2 9.7 0.00 0.03 0.00 79 999.9